Regional Weather Roundup
Issued by NWS

Home | Current Version | Previous Version | Graphics & Text | Print | Product List | Glossary On
Versions: 1 2 3 4 5 6 7 8 9 10 11 12 13 14 15 16 17 18 19 20 21 22 23 24 25 26 27 28 29 30 31 32 33 34 35 36 37 38 39 40 41 42 43 44 45 46 47 48 49 50
000
ASUS45 KBOU 202107
RWRCO

WEATHER ROUNDUP FOR COLORADO
NATIONAL WEATHER SERVICE DENVER/BOULDER CO
300 PM MDT MON APR 20 2015

NOTE: "FAIR" INDICATES FEW OR NO CLOUDS BELOW 12000 FEET WITH NO
SIGNIFICANT WEATHER AND/OR OBSTRUCTIONS TO VISIBILITY.

COZ001>005-013-030-031-202200-
...NORTHWEST COLORADO...

CITY           SKY/WX    TMP DP  RH WIND       PRES   REMARKS
CRAIG          RAIN      50  38  63 NE7       29.96F
HAYDEN         PTSUNNY   48  30  49 N9G18     29.96F
MEEKER         CLOUDY    55  29  36 N18       29.94F
MOUNT WERNER   NOT AVBL
STEAMBOAT SPGS MOSUNNY   49  31  50 W16G22    29.95F
WALDEN         CLOUDY    37  28  70 N20G25    29.97S
$$

COZ006>008-011-202200-
...WEST CENTRAL VALLEYS...

CITY           SKY/WX    TMP DP  RH WIND       PRES   REMARKS
GRAND JUNCTION MOSUNNY   64  30  27 N8        29.90F
MONTROSE       PTSUNNY   59  32  36 CALM      29.97F
EAGLE          PTSUNNY   54  25  32 W9        29.96F
RIFLE          PTSUNNY   62  27  26 VRB7      29.91F
DELTA          MOSUNNY   67  30  25 W12G20    29.92F
NUCLA          MOSUNNY   63  28  27 NW10G16   29.97F
$$

COZ017>023-064>068-202200-
...SOUTHWEST COLORADO...

CITY           SKY/WX    TMP DP  RH WIND       PRES   REMARKS
DURANGO        PTSUNNY   60  22  23 NW21G32   29.93F
CORTEZ         PTSUNNY   63  22  20 SW6       29.95R
PAGOSA SPRINGS PTSUNNY   54  23  29 SE12G20   29.95F
TELLURIDE      PTSUNNY   49  23  35 W15G21    30.05F
WOLF CREEK PAS CLOUDY    32  23  69 SW9G16    30.12F WCI  24
$$

COZ009-010-012-014-032>034-037-058>063-202200-
...CENTRAL COLORADO...

CITY           SKY/WX    TMP DP  RH WIND       PRES   REMARKS
ASPEN          PTSUNNY   50  24  36 N12G20    29.97F
BUENA VISTA    PTSUNNY   49  25  38 NW14      29.95F
COPPER MTN     NOT AVBL
BERTHOUD PASS  HVY SNOW  18  10  73 NW36      30.01R VSB<1/4 WCI  -3
COTTONWOOD PAS MOSUNNY   45  19  36 W6        30.00F
GUNNISON       MOSUNNY   52  23  32 W15G25    30.00F
KREMMLING      MOSUNNY   50  30  46 W10G17    29.97F
LEADVILLE      LGT SNOW  31  23  72 N18G25    30.01R WCI  19
MONARCH PASS   LGT SNOW  27  23  86 W23G41    30.16F WCI  12
SALIDA         PTSUNNY   53  21  28 N7G16     30.00F
SUNLIGHT       CLOUDY    36  28  75 W7        30.10F
WILKERSON PASS PTSUNNY   34  19  55 W9G24     30.06S WCI  26
$$

COZ069>075-202200-
...SAN LUIS VALLEY/SANGRE DE CRISTO MOUNTAINS...

CITY           SKY/WX    TMP DP  RH WIND       PRES   REMARKS
ALAMOSA        PTSUNNY   54  27  35 W10       29.95F
LA VETA PASS   TSTM      37  27  65 CALM      30.02F
SAGUACHE       MOSUNNY   55  23  28 NW22G33   29.95F
$$

COZ035-036-038>040-202200-
...NORTHERN COLORADO FRONT RANGE...

CITY           SKY/WX    TMP DP  RH WIND       PRES   REMARKS
DENVER INTL AP MOSUNNY   52  30  43 VRB5      29.92F
DMNS CITY PARK   N/A     55  28  35 NE7       29.91F
AURORA         NOT AVBL
FRONT RANGE AP PTSUNNY   54  32  43 N7        29.94F
ERIE MUNI ARPT MOSUNNY   53  28  37 CALM      29.92F
BOULDER MUN AP CLOUDY    54  32  43 NE7       29.91F
CENTENNIAL     MOSUNNY   54  30  40 NW7       29.91F
BROOMFIELD     PTSUNNY   50  28  43 CALM      29.93F
FORT COLLINS   MOSUNNY   52  32  46 W9        29.93F
LONGMONT       PTSUNNY   55  32  41 E5        29.94F
$$

COZ041-046-047-076>085-087-088-202200-
...PIKES PEAK/PALMER DIVIDE AND SOUTHERN FOOTHILLS...

CITY           SKY/WX    TMP DP  RH WIND       PRES   REMARKS
COLO. SPRINGS  PTSUNNY   51  30  44 S9        29.92F
A. F. ACADEMY  LGT RAIN  50  32  50 S10       29.92F
ELLICOTT       MOSUNNY  N/A N/A N/A CALM      29.92F
FALCON         LGT RAIN  49  31  48 CALM      29.94F
FORT CARSON    NOT AVBL
LIMON          PTSUNNY   54  28  36 N8        29.92F
MONUMENT HILL  PTSUNNY   50  27  40 NE7       29.92F
TRINIDAD       PTSUNNY   57  33  40 S8        29.90F
$$

COZ042>045-048>051-090-091-202200-
...NORTHEAST COLORADO...

CITY           SKY/WX    TMP DP  RH WIND       PRES   REMARKS
GREELEY ARPT   SUNNY     54  30  40 W7        29.93F
AKRON          PTSUNNY   55  26  32 NW20G26   29.91F
BURLINGTON     CLOUDY    54  30  40 NW10      29.93F
WRAY           CLOUDY    58  27  30 NW10G20   29.91F
STERLING       MOSUNNY   55  28  35 N21G26    29.89F
HOLYOKE        MOSUNNY   59  27  29 NW16G24   29.90F
FORT MORGAN    MOSUNNY   56  23  27 NW13G20   29.91F
$$

COZ086-089-092>099-202200-
...SOUTHEAST COLORADO...

CITY           SKY/WX    TMP DP  RH WIND       PRES   REMARKS
PUEBLO         MOSUNNY   58  28  32 NE9       29.90F
LA JUNTA       SUNNY     58  33  39 E12       29.90F
LAMAR          SUNNY     57  33  40 W6        29.90F
SPRINGFIELD      N/A     60  30  32 CALM      29.89F
$$


USA.gov is the U.S. government's official web portal to all federal, state and local government web resources and services.